Location: Newark
(38.9311°S, 68.8090°E)
Time: 00:23:23
(UTC+00:00)

LightSail 2 - Pass Details

Date: 25 January 2020
Orbit: 701 x 721 km, 24.0° (Epoch: 16 February)

Event Time Altitude Azimuth Distance (km) Brightness Sun altitude
Exits shadow 22:57:55 11° 0° (N) 2,098 7.2 -15.5°
Maximum altitude 22:58:49 12° 11° (N) 2,068 7.3 -15.4°
Drops below altitude 10° 23:00:42 10° 33° (NNE) 2,197 7.6 -15.1°
Sets 23:04:46 0° 63° (ENE) 3,114 8.8 -14.5°
